Location: Goettingen
(51.5300°N, 9.9433°E)
Time: 00:43:52
(UTC+02:00)

ISS - Pass Details

Date: 23 May 2017
Orbit: 402 x 408 km, 51.6° (Epoch: 30 May)

Event Time Altitude Azimuth Distance (km) Brightness Sun altitude
Exits shadow 01:14:58 26° 253° (WSW) 838 -2.4 -17.9°
Maximum altitude 01:16:39 80° 169° (S) 418 -4.0 -17.9°
Drops below altitude 10° 01:19:57 10° 82° (E) 1,468 -0.9 -17.9°
Sets 01:22:02 0° 81° (E) 2,328 0.2 -17.9°
